Time,TemperatureF,DewpointF,PressureIn,WindDirection,WindDirectionDegrees,WindSpeedMPH,WindSpeedGustMPH,Humidity,HourlyPrecipIn,Conditions,Clouds,dailyrainin,SolarRadiationWatts/m^2,SoftwareType,DateUTC
2013-01-29 00:00:00,34.0,32.0,-100.00,SSW,202,4.0,-999.0,90,-99.99,,,-99.99,0.000000,,2013-01-29 05:00:00,
2013-01-29 00:43:00,34.0,32.0,-100.00,SSW,202,4.0,-999.0,90,-99.99,,,-99.99,0.000000,,2013-01-29 05:43:00,
2013-01-29 00:52:00,34.0,32.0,-100.00,SSW,202,4.0,-999.0,90,-99.99,,,-99.99,0.000000,,2013-01-29 05:52:00,
2013-01-29 01:00:00,34.0,31.0,-100.00,South,180,1.0,-999.0,91,-99.99,,,-99.99,0.000000,,2013-01-29 06:00:00,
2013-01-29 01:32:00,34.0,31.0,-100.00,South,180,1.0,-999.0,91,-99.99,,,-99.99,0.000000,,2013-01-29 06:32:00,
2013-01-29 01:42:00,34.0,31.0,-100.00,South,180,1.0,-999.0,91,-99.99,,,-99.99,0.000000,,2013-01-29 06:42:00,
2013-01-29 01:52:00,34.0,31.0,-100.00,South,180,1.0,-999.0,91,-99.99,,,-99.99,0.000000,,2013-01-29 06:52:00,
2013-01-29 02:00:00,33.0,31.0,-100.00,SE,135,1.0,-999.0,92,-99.99,,,-99.99,0.000000,,2013-01-29 07:00:00,
2013-01-29 02:42:00,33.0,31.0,-100.00,SE,135,1.0,-999.0,92,-99.99,,,-99.99,0.000000,,2013-01-29 07:42:00,
2013-01-29 02:52:00,33.0,31.0,-100.00,SE,135,1.0,-999.0,92,-99.99,,,-99.99,0.000000,,2013-01-29 07:52:00,
2013-01-29 03:00:00,34.0,32.0,-100.00,ESE,112,4.0,-999.0,92,-99.99,,,-99.99,0.000000,,2013-01-29 08:00:00,
2013-01-29 03:42:00,34.0,32.0,-100.00,ESE,112,4.0,-999.0,92,-99.99,,,-99.99,0.000000,,2013-01-29 08:42:00,
2013-01-29 03:52:00,34.0,32.0,-100.00,ESE,112,4.0,-999.0,92,-99.99,,,-99.99,0.000000,,2013-01-29 08:52:00,
2013-01-29 04:00:00,34.0,32.0,-100.00,ESE,112,5.0,-999.0,92,-99.99,,,-99.99,0.000000,,2013-01-29 09:00:00,
2013-01-29 04:42:00,34.0,32.0,-100.00,ESE,112,5.0,-999.0,92,-99.99,,,-99.99,0.000000,,2013-01-29 09:42:00,
2013-01-29 04:52:00,34.0,32.0,-100.00,ESE,112,5.0,-999.0,92,-99.99,,,-99.99,0.000000,,2013-01-29 09:52:00,
2013-01-29 05:00:00,34.0,32.0,-100.00,ESE,112,7.0,-999.0,93,-99.99,,,-99.99,0.000000,,2013-01-29 10:00:00,
2013-01-29 05:42:00,34.0,32.0,-100.00,ESE,112,7.0,-999.0,93,-99.99,,,-99.99,0.000000,,2013-01-29 10:42:00,
2013-01-29 05:52:00,34.0,32.0,-100.00,ESE,112,7.0,-999.0,93,-99.99,,,-99.99,0.000000,,2013-01-29 10:52:00,
2013-01-29 06:00:00,33.0,32.0,-100.00,ESE,112,9.0,-999.0,95,0.10,,,-99.99,0.000000,,2013-01-29 11:00:00,
2013-01-29 06:42:00,33.0,32.0,-100.00,ESE,112,9.0,-999.0,95,0.10,,,-99.99,0.000000,,2013-01-29 11:42:00,
2013-01-29 06:53:00,33.0,32.0,-100.00,ESE,112,9.0,-999.0,95,0.10,,,-99.99,0.000000,,2013-01-29 11:53:00,
2013-01-29 07:00:00,33.0,33.0,-100.00,ESE,112,5.0,-999.0,97,0.21,,,-99.99,0.000000,,2013-01-29 12:00:00,
2013-01-29 07:33:00,33.0,33.0,-100.00,ESE,112,5.0,-999.0,97,0.21,,,-99.99,0.000000,,2013-01-29 12:33:00,
2013-01-29 07:43:00,33.0,33.0,-100.00,ESE,112,5.0,-999.0,97,0.21,,,-99.99,0.000000,,2013-01-29 12:43:00,
2013-01-29 07:53:00,33.0,33.0,-100.00,ESE,112,5.0,-999.0,97,0.21,,,-99.99,0.000000,,2013-01-29 12:53:00,
2013-01-29 08:00:00,34.0,33.0,-100.00,ESE,112,4.0,-999.0,99,0.07,,,-99.99,0.000000,,2013-01-29 13:00:00,
2013-01-29 08:43:00,34.0,33.0,-100.00,ESE,112,4.0,-999.0,99,0.07,,,-99.99,0.000000,,2013-01-29 13:43:00,
2013-01-29 08:53:00,34.0,33.0,-100.00,ESE,112,4.0,-999.0,99,0.07,,,-99.99,0.000000,,2013-01-29 13:53:00,
2013-01-29 09:00:00,34.0,34.0,-100.00,ESE,112,4.0,-999.0,99,0.05,,,-99.99,6.960000,,2013-01-29 14:00:00,
2013-01-29 09:43:00,34.0,34.0,-100.00,ESE,112,4.0,-999.0,99,0.05,,,-99.99,6.960000,,2013-01-29 14:43:00,
2013-01-29 09:53:00,34.0,34.0,-100.00,ESE,112,4.0,-999.0,99,0.05,,,-99.99,6.960000,,2013-01-29 14:53:00,
2013-01-29 11:00:00,37.0,37.0,-100.00,SSE,157,6.0,-999.0,100,0.01,,,-99.99,37.119999,,2013-01-29 16:00:00,
2013-01-29 11:43:00,37.0,37.0,-100.00,SSE,157,6.0,-999.0,100,0.01,,,-99.99,37.119999,,2013-01-29 16:43:00,
2013-01-29 11:53:00,37.0,37.0,-100.00,SSE,157,6.0,-999.0,100,0.01,,,-99.99,37.119999,,2013-01-29 16:53:00,
2013-01-29 12:00:00,40.0,40.0,-100.00,South,180,8.0,-999.0,99,-99.99,,,-99.99,62.639999,,2013-01-29 17:00:00,
2013-01-29 12:42:00,40.0,40.0,-100.00,South,180,8.0,-999.0,99,-99.99,,,-99.99,62.639999,,2013-01-29 17:42:00,
2013-01-29 12:53:00,40.0,40.0,-100.00,South,180,8.0,-999.0,99,-99.99,,,-99.99,62.639999,,2013-01-29 17:53:00,
2013-01-29 13:00:00,42.0,42.0,-100.00,South,180,8.0,-999.0,99,-99.99,,,-99.99,91.639999,,2013-01-29 18:00:00,
2013-01-29 13:42:00,42.0,42.0,-100.00,South,180,8.0,-999.0,99,-99.99,,,-99.99,91.639999,,2013-01-29 18:42:00,
2013-01-29 13:52:00,42.0,42.0,-100.00,South,180,8.0,-999.0,99,-99.99,,,-99.99,91.639999,,2013-01-29 18:52:00,
2013-01-29 14:00:00,45.0,45.0,-100.00,South,180,8.0,-999.0,100,-99.99,,,-99.99,162.399994,,2013-01-29 19:00:00,
2013-01-29 14:42:00,45.0,45.0,-100.00,South,180,8.0,-999.0,100,-99.99,,,-99.99,162.399994,,2013-01-29 19:42:00,
2013-01-29 14:52:00,45.0,45.0,-100.00,South,180,8.0,-999.0,100,-99.99,,,-99.99,162.399994,,2013-01-29 19:52:00,
2013-01-29 15:00:00,48.0,48.0,-100.00,South,180,10.0,-999.0,100,-99.99,,,-99.99,161.240005,,2013-01-29 20:00:00,
2013-01-29 15:43:00,48.0,48.0,-100.00,South,180,10.0,-999.0,100,-99.99,,,-99.99,161.240005,,2013-01-29 20:43:00,
2013-01-29 15:54:00,48.0,48.0,-100.00,South,180,10.0,-999.0,100,-99.99,,,-99.99,161.240005,,2013-01-29 20:54:00,
2013-01-29 16:00:00,49.0,49.0,-100.00,SSW,202,7.0,-999.0,100,-99.99,,,-99.99,69.599998,,2013-01-29 21:00:00,
2013-01-29 16:42:00,49.0,49.0,-100.00,SSW,202,7.0,-999.0,100,-99.99,,,-99.99,69.599998,,2013-01-29 21:42:00,
2013-01-29 16:53:00,49.0,49.0,-100.00,SSW,202,7.0,-999.0,100,-99.99,,,-99.99,69.599998,,2013-01-29 21:53:00,
2013-01-29 17:00:00,49.0,49.0,-100.00,South,180,5.0,-999.0,100,-99.99,,,-99.99,31.320000,,2013-01-29 22:00:00,
2013-01-29 17:43:00,49.0,49.0,-100.00,South,180,5.0,-999.0,100,-99.99,,,-99.99,31.320000,,2013-01-29 22:43:00,
2013-01-29 17:53:00,49.0,49.0,-100.00,South,180,5.0,-999.0,100,-99.99,,,-99.99,31.320000,,2013-01-29 22:53:00,
2013-01-29 18:00:00,49.0,49.0,-100.00,South,180,7.0,-999.0,100,-99.99,,,-99.99,3.480000,,2013-01-29 23:00:00,
2013-01-29 18:42:00,49.0,49.0,-100.00,South,180,7.0,-999.0,100,-99.99,,,-99.99,3.480000,,2013-01-29 23:42:00,
2013-01-29 18:53:00,49.0,49.0,-100.00,South,180,7.0,-999.0,100,-99.99,,,-99.99,3.480000,,2013-01-29 23:53:00,
2013-01-29 19:00:00,49.0,49.0,-100.00,South,180,6.0,-999.0,100,0.05,,,-99.99,0.000000,,2013-01-30 00:00:00,
2013-01-29 19:43:00,49.0,49.0,-100.00,South,180,6.0,-999.0,100,0.05,,,-99.99,0.000000,,2013-01-30 00:43:00,
2013-01-29 19:53:00,49.0,49.0,-100.00,South,180,6.0,-999.0,100,0.05,,,-99.99,0.000000,,2013-01-30 00:53:00,
2013-01-29 20:00:00,50.0,50.0,-100.00,South,180,9.0,-999.0,100,0.12,,,-99.99,0.000000,,2013-01-30 01:00:00,
2013-01-29 20:43:00,50.0,50.0,-100.00,South,180,9.0,-999.0,100,0.12,,,-99.99,0.000000,,2013-01-30 01:43:00,
2013-01-29 20:52:00,50.0,50.0,-100.00,South,180,9.0,-999.0,100,0.12,,,-99.99,0.000000,,2013-01-30 01:52:00,
2013-01-29 21:00:00,49.0,49.0,-100.00,SSE,157,8.0,-999.0,100,-99.99,,,-99.99,0.000000,,2013-01-30 02:00:00,
2013-01-29 21:33:00,49.0,49.0,-100.00,SSE,157,8.0,-999.0,100,-99.99,,,-99.99,0.000000,,2013-01-30 02:33:00,
2013-01-29 21:42:00,49.0,49.0,-100.00,SSE,157,8.0,-999.0,100,-99.99,,,-99.99,0.000000,,2013-01-30 02:42:00,
2013-01-29 21:53:00,49.0,49.0,-100.00,SSE,157,8.0,-999.0,100,-99.99,,,-99.99,0.000000,,2013-01-30 02:53:00,
2013-01-29 22:00:00,51.0,51.0,-100.00,South,180,10.0,-999.0,100,0.01,,,-99.99,0.000000,,2013-01-30 03:00:00,
2013-01-29 22:42:00,51.0,51.0,-100.00,South,180,10.0,-999.0,100,0.01,,,-99.99,0.000000,,2013-01-30 03:42:00,
2013-01-29 22:52:00,51.0,51.0,-100.00,South,180,10.0,-999.0,100,0.01,,,-99.99,0.000000,,2013-01-30 03:52:00,
2013-01-29 23:00:00,52.0,52.0,-100.00,South,180,13.0,-999.0,100,-99.99,,,-99.99,0.000000,,2013-01-30 04:00:00,
2013-01-29 23:22:00,52.0,52.0,-100.00,South,180,13.0,-999.0,100,-99.99,,,-99.99,0.000000,,2013-01-30 04:22:00,
2013-01-29 23:32:00,52.0,52.0,-100.00,South,180,13.0,-999.0,100,-99.99,,,-99.99,0.000000,,2013-01-30 04:32:00,
2013-01-29 23:42:00,52.0,52.0,-100.00,South,180,13.0,-999.0,100,-99.99,,,-99.99,0.000000,,2013-01-30 04:42:00,
2013-01-29 23:52:00,52.0,52.0,-100.00,South,180,13.0,-999.0,100,-99.99,,,-99.99,0.000000,,2013-01-30 04:52:00,